Volver al catálogo

STARLINK-3764

ActivoComunicacionesVLEO
NORAD 52280·PAYLOAD·🇺🇸 United States

Lanzado Apr 21, 2022 desde Cape Canaveral Space Force Station

Loading…

Próximos Pases (próximas 24 horas)

TLE

ActualizadoSource: CelesTrak SupGP

Época: Sep 14, 2026, 21:37 UTC

1 52280C 22041V   26257.90118056 -.00025636  00000+0 -82454-3 0  2574
2 52280  53.1586 327.1315 0001207  80.2601 285.6506 15.31709015    11

Sigue STARLINK-3764 en tiempo real con AllMySat

Download on the App Store